Location: ??
(35.5138°N, 139.6953°E)
Time: 08:57:03
(UTC+00:00)

SL-4 R/B - Pass Details

Date: 07 June 2020
Orbit: 428 x 666 km, 51.6° (Epoch: 05 July)

Event Time Altitude Azimuth Distance (km) Brightness Sun altitude
Rises 10:24:02 0° 236° (WSW) 2,819 6.0 -5.9°
Reaches altitude 10° 10:26:16 10° 240° (WSW) 1,956 5.2 -6.3°
Maximum altitude 10:30:44 61° 321° (NW) 719 3.0 -7.0°
Drops below altitude 10° 10:35:29 10° 42° (NE) 2,067 4.9 -7.8°
Sets 10:37:54 0° 46° (NE) 2,995 5.7 -8.2°
